Time,TemperatureF,DewpointF,PressureIn,WindDirection,WindDirectionDegrees,WindSpeedMPH,WindSpeedGustMPH,Humidity,HourlyPrecipIn,Conditions,Clouds,dailyrainin,SoftwareType,DateUTC
2013-02-04 00:05:00,32.7,4.6,29.93,North,353,0.0,0.0,30,0.00,,,0.00,Wunderground v.1.15,2013-02-04 07:05:00,
2013-02-04 00:20:00,33.6,3.9,29.93,South,188,1.0,1.0,28,0.00,,,0.00,Wunderground v.1.15,2013-02-04 07:20:00,
2013-02-04 00:30:00,37.0,3.5,29.92,NNE,16,3.0,3.0,24,0.00,,,0.00,Wunderground v.1.15,2013-02-04 07:30:00,
2013-02-04 00:35:00,37.4,3.8,29.93,North,349,2.0,3.0,24,0.00,,,0.00,Wunderground v.1.15,2013-02-04 07:35:00,
2013-02-04 00:55:00,40.1,3.2,29.93,WSW,252,2.0,2.0,21,0.00,,,0.00,Wunderground v.1.15,2013-02-04 07:55:00,
2013-02-04 01:15:00,42.2,2.8,29.93,West,277,5.0,5.0,19,0.00,,,0.00,Wunderground v.1.15,2013-02-04 08:15:00,
2013-02-04 01:25:00,42.1,2.7,29.94,NW,320,5.0,5.0,19,0.00,,,0.00,Wunderground v.1.15,2013-02-04 08:25:00,
2013-02-04 01:35:00,41.9,3.7,29.94,West,278,5.0,6.0,20,0.00,,,0.00,Wunderground v.1.15,2013-02-04 08:35:00,
2013-02-04 01:55:00,41.2,4.1,29.94,WSW,249,4.0,4.0,21,0.00,,,0.00,Wunderground v.1.15,2013-02-04 08:55:00,
2013-02-04 02:00:00,41.1,5.1,29.94,WSW,241,4.0,4.0,22,0.00,,,0.00,Wunderground v.1.15,2013-02-04 09:00:00,
2013-02-04 02:05:00,40.9,4.9,29.94,West,265,5.0,7.0,22,0.00,,,0.00,Wunderground v.1.15,2013-02-04 09:05:00,
2013-02-04 02:15:00,41.3,5.2,29.94,WSW,243,6.0,6.0,22,0.00,,,0.00,Wunderground v.1.15,2013-02-04 09:15:00,
2013-02-04 02:25:00,41.6,5.5,29.94,WNW,291,6.0,6.0,22,0.00,,,0.00,Wunderground v.1.15,2013-02-04 09:25:00,
2013-02-04 02:35:00,41.9,4.7,29.94,NW,305,5.0,5.0,21,0.00,,,0.00,Wunderground v.1.15,2013-02-04 09:35:00,
2013-02-04 02:50:00,41.8,4.6,29.93,West,271,4.0,5.0,21,0.00,,,0.00,Wunderground v.1.15,2013-02-04 09:50:00,
2013-02-04 03:10:00,41.6,4.5,29.92,West,277,3.0,3.0,21,0.00,,,0.00,Wunderground v.1.15,2013-02-04 10:10:00,
2013-02-04 03:30:00,38.5,5.7,29.92,NE,49,0.0,0.0,25,0.00,,,0.00,Wunderground v.1.15,2013-02-04 10:30:00,
2013-02-04 03:40:00,37.7,5.0,29.92,NNW,338,1.0,2.0,25,0.00,,,0.00,Wunderground v.1.15,2013-02-04 10:40:00,
2013-02-04 03:45:00,37.6,5.7,29.92,NNW,334,1.0,2.0,26,0.00,,,0.00,Wunderground v.1.15,2013-02-04 10:45:00,
2013-02-04 03:55:00,36.5,6.4,29.91,SE,144,0.0,0.0,28,0.00,,,0.00,Wunderground v.1.15,2013-02-04 10:55:00,
2013-02-04 04:00:00,35.2,6.1,29.92,East,93,0.0,0.0,29,0.00,,,0.00,Wunderground v.1.15,2013-02-04 11:00:00,
2013-02-04 04:10:00,34.9,5.8,29.92,North,359,1.0,1.0,29,0.00,,,0.00,Wunderground v.1.15,2013-02-04 11:10:00,
2013-02-04 04:15:00,34.9,6.6,29.92,North,358,1.0,1.0,30,0.00,,,0.00,Wunderground v.1.15,2013-02-04 11:15:00,
2013-02-04 04:20:00,34.1,5.9,29.92,North,359,0.0,1.0,30,0.00,,,0.00,Wunderground v.1.15,2013-02-04 11:20:00,
2013-02-04 04:26:00,33.7,6.2,29.92,ESE,103,0.0,1.0,31,0.00,,,0.00,Wunderground v.1.15,2013-02-04 11:26:00,
2013-02-04 04:35:00,32.1,6.2,29.93,East,101,0.0,0.0,33,0.00,,,0.00,Wunderground v.1.15,2013-02-04 11:35:00,
2013-02-04 04:50:00,32.4,5.8,29.93,NE,43,1.0,1.0,32,0.00,,,0.00,Wunderground v.1.15,2013-02-04 11:50:00,
2013-02-04 04:55:00,32.3,5.7,29.93,East,79,1.0,1.0,32,0.00,,,0.00,Wunderground v.1.15,2013-02-04 11:55:00,
2013-02-04 05:00:00,31.7,6.5,29.93,East,79,0.0,1.0,34,0.00,,,0.00,Wunderground v.1.15,2013-02-04 12:00:00,
2013-02-04 05:15:00,30.1,6.3,29.93,NNE,15,1.0,2.0,36,0.00,,,0.00,Wunderground v.1.15,2013-02-04 12:15:00,
2013-02-04 05:35:00,30.6,6.8,29.93,SSE,166,1.0,1.0,36,0.00,,,0.00,Wunderground v.1.15,2013-02-04 12:35:00,
2013-02-04 05:40:00,30.2,7.0,29.92,North,4,1.0,1.0,37,0.00,,,0.00,Wunderground v.1.15,2013-02-04 12:40:00,
2013-02-04 05:55:00,30.4,6.6,29.92,SW,229,1.0,1.0,36,0.00,,,0.00,Wunderground v.1.15,2013-02-04 12:55:00,
2013-02-04 06:40:00,30.5,7.3,29.92,NNW,348,1.0,1.0,37,0.00,,,0.00,Wunderground v.1.15,2013-02-04 13:40:00,
2013-02-04 06:51:00,29.7,8.3,29.92,NE,47,1.0,1.0,40,0.00,,,0.00,Wunderground v.1.15,2013-02-04 13:51:00,
2013-02-04 07:00:00,29.9,7.9,29.92,West,280,1.0,2.0,39,0.00,,,0.00,Wunderground v.1.15,2013-02-04 14:00:00,
2013-02-04 07:05:00,30.0,8.0,29.92,ESE,108,1.0,2.0,39,0.00,,,0.00,Wunderground v.1.15,2013-02-04 14:05:00,
2013-02-04 07:15:00,30.1,8.1,29.92,SSW,210,1.0,1.0,39,0.00,,,0.00,Wunderground v.1.15,2013-02-04 14:15:00,
2013-02-04 07:25:00,31.9,7.9,29.91,SE,126,1.0,3.0,36,0.00,,,0.00,Wunderground v.1.15,2013-02-04 14:25:00,
2013-02-04 07:35:00,33.6,9.4,29.91,ENE,74,1.0,2.0,36,0.00,,,0.00,Wunderground v.1.15,2013-02-04 14:35:00,
2013-02-04 07:40:00,33.5,9.4,29.91,WSW,242,1.0,2.0,36,0.00,,,0.00,Wunderground v.1.15,2013-02-04 14:40:00,
2013-02-04 07:46:00,33.5,9.4,29.91,ENE,67,1.0,1.0,36,0.00,,,0.00,Wunderground v.1.15,2013-02-04 14:46:00,
2013-02-04 08:10:00,36.2,9.8,29.90,WSW,238,0.0,0.0,33,0.00,,,0.00,Wunderground v.1.15,2013-02-04 15:10:00,
2013-02-04 08:20:00,34.9,10.6,29.91,NE,47,1.0,5.0,36,0.00,,,0.00,Wunderground v.1.15,2013-02-04 15:20:00,
2013-02-04 08:30:00,35.1,10.8,29.91,NE,39,2.0,2.0,36,0.00,,,0.00,Wunderground v.1.15,2013-02-04 15:30:00,
2013-02-04 08:35:00,35.5,10.5,29.90,East,84,2.0,2.0,35,0.00,,,0.00,Wunderground v.1.15,2013-02-04 15:35:00,
2013-02-04 08:45:00,36.0,8.9,29.90,SE,129,2.0,2.0,32,0.00,,,0.00,Wunderground v.1.15,2013-02-04 15:45:00,
2013-02-04 08:55:00,37.9,9.9,29.90,SE,129,0.0,1.0,31,0.00,,,0.00,Wunderground v.1.15,2013-02-04 15:55:00,
2013-02-04 09:10:00,37.7,10.4,29.89,East,98,1.0,1.0,32,0.00,,,0.00,Wunderground v.1.15,2013-02-04 16:10:00,
2013-02-04 09:25:00,36.6,10.8,29.88,East,79,0.0,0.0,34,0.00,,,0.00,Wunderground v.1.15,2013-02-04 16:25:00,
2013-02-04 09:35:00,36.9,10.4,29.89,East,79,0.0,0.0,33,0.00,,,0.00,Wunderground v.1.15,2013-02-04 16:35:00,
2013-02-04 09:50:00,37.2,11.4,29.89,East,79,0.0,0.0,34,0.00,,,0.00,Wunderground v.1.15,2013-02-04 16:50:00,
2013-02-04 10:00:00,40.7,11.6,29.88,ENE,63,1.0,2.0,30,0.00,,,0.00,Wunderground v.1.15,2013-02-04 17:00:00,
2013-02-04 10:06:00,41.3,11.4,29.88,NE,52,1.0,3.0,29,0.00,,,0.00,Wunderground v.1.15,2013-02-04 17:06:00,
2013-02-04 10:20:00,40.7,11.6,29.89,NE,56,2.0,2.0,30,0.00,,,0.00,Wunderground v.1.15,2013-02-04 17:20:00,
2013-02-04 10:30:00,41.3,10.6,29.89,SSE,149,1.0,1.0,28,0.00,,,0.00,Wunderground v.1.15,2013-02-04 17:30:00,
2013-02-04 10:40:00,42.8,10.2,29.89,SSE,151,2.0,3.0,26,0.00,,,0.00,Wunderground v.1.15,2013-02-04 17:40:00,
2013-02-04 10:55:00,42.9,13.5,29.88,East,89,3.0,3.0,30,0.00,,,0.00,Wunderground v.1.15,2013-02-04 17:55:00,
2013-02-04 11:00:00,43.3,13.1,29.87,ESE,123,3.0,3.0,29,0.00,,,0.00,Wunderground v.1.15,2013-02-04 18:00:00,
2013-02-04 11:25:00,48.0,13.8,29.86,ENE,68,3.0,4.0,25,0.00,,,0.00,Wunderground v.1.15,2013-02-04 18:25:00,
2013-02-04 11:35:00,47.7,14.4,29.85,NE,38,3.0,3.0,26,0.00,,,0.00,Wunderground v.1.15,2013-02-04 18:35:00,
2013-02-04 11:50:00,52.0,8.5,29.84,ESE,110,5.0,5.0,17,0.00,,,0.00,Wunderground v.1.15,2013-02-04 18:50:00,
2013-02-04 12:20:00,52.4,11.3,29.83,East,91,2.0,2.0,19,0.00,,,0.00,Wunderground v.1.15,2013-02-04 19:20:00,
2013-02-04 12:30:00,52.4,12.4,29.82,East,101,4.0,6.0,20,0.00,,,0.00,Wunderground v.1.15,2013-02-04 19:30:00,
2013-02-04 12:35:00,52.5,11.4,29.82,SW,219,3.0,6.0,19,0.00,,,0.00,Wunderground v.1.15,2013-02-04 19:35:00,
2013-02-04 12:45:00,51.7,11.9,29.81,ENE,64,3.0,3.0,20,0.00,,,0.00,Wunderground v.1.15,2013-02-04 19:45:00,
2013-02-04 12:50:00,51.8,11.9,29.81,ENE,62,3.0,3.0,20,0.00,,,0.00,Wunderground v.1.15,2013-02-04 19:50:00,
2013-02-04 13:00:00,52.1,11.0,29.80,ENE,70,3.0,3.0,19,0.00,,,0.00,Wunderground v.1.15,2013-02-04 20:00:00,
2013-02-04 13:15:00,53.6,11.0,29.79,ESE,110,2.0,3.0,18,0.00,,,0.00,Wunderground v.1.15,2013-02-04 20:15:00,
2013-02-04 13:20:00,54.1,10.2,29.78,ESE,105,2.0,3.0,17,0.00,,,0.00,Wunderground v.1.15,2013-02-04 20:20:00,
2013-02-04 13:30:00,54.4,9.1,29.77,ENE,68,2.0,4.0,16,0.00,,,0.00,Wunderground v.1.15,2013-02-04 20:30:00,
2013-02-04 13:40:00,54.2,8.9,29.77,NE,48,2.0,2.0,16,0.00,,,0.00,Wunderground v.1.15,2013-02-04 20:40:00,
2013-02-04 13:55:00,54.7,7.9,29.76,East,100,1.0,1.0,15,0.00,,,0.00,Wunderground v.1.15,2013-02-04 20:55:00,
2013-02-04 14:15:00,54.7,7.9,29.75,SSE,160,2.0,2.0,15,0.00,,,0.00,Wunderground v.1.15,2013-02-04 21:15:00,
2013-02-04 14:35:00,54.3,7.5,29.75,North,5,1.0,1.0,15,0.00,,,0.00,Wunderground v.1.15,2013-02-04 21:35:00,
2013-02-04 15:05:00,53.9,7.2,29.75,SE,124,1.0,1.0,15,0.00,,,0.00,Wunderground v.1.15,2013-02-04 22:05:00,
2013-02-04 15:15:00,53.9,7.2,29.76,SSE,166,0.0,1.0,15,0.00,,,0.00,Wunderground v.1.15,2013-02-04 22:15:00,
2013-02-04 15:25:00,53.7,7.1,29.75,SW,228,2.0,2.0,15,0.00,,,0.00,Wunderground v.1.15,2013-02-04 22:25:00,
2013-02-04 15:35:00,54.3,7.5,29.75,East,94,0.0,2.0,15,0.00,,,0.00,Wunderground v.1.15,2013-02-04 22:35:00,
2013-02-04 15:55:00,54.9,6.5,29.75,SSE,160,0.0,0.0,14,0.00,,,0.00,Wunderground v.1.15,2013-02-04 22:55:00,
2013-02-04 16:00:00,55.2,6.7,29.75,SSE,160,0.0,0.0,14,0.00,,,0.00,Wunderground v.1.15,2013-02-04 23:00:00,
2013-02-04 16:10:00,56.2,5.9,29.75,ENE,77,1.0,1.0,13,0.00,,,0.00,Wunderground v.1.15,2013-02-04 23:10:00,
2013-02-04 16:20:00,56.2,5.9,29.75,SSE,153,1.0,1.0,13,0.00,,,0.00,Wunderground v.1.15,2013-02-04 23:20:00,
2013-02-04 16:30:00,56.6,6.2,29.75,SW,228,1.0,2.0,13,0.00,,,0.00,Wunderground v.1.15,2013-02-04 23:30:00,
2013-02-04 16:40:00,55.6,5.4,29.75,WSW,241,2.0,2.0,13,0.00,,,0.00,Wunderground v.1.15,2013-02-04 23:40:00,
2013-02-04 16:55:00,53.1,6.6,29.76,SW,228,2.0,2.0,15,0.00,,,0.00,Wunderground v.1.15,2013-02-04 23:55:00,
2013-02-04 17:15:00,48.9,7.2,29.77,East,96,1.0,1.0,18,0.00,,,0.00,Wunderground v.1.15,2013-02-05 00:15:00,
2013-02-04 17:25:00,48.3,7.9,29.78,North,352,1.0,1.0,19,0.00,,,0.00,Wunderground v.1.15,2013-02-05 00:25:00,
2013-02-04 17:35:00,47.8,8.6,29.79,ENE,70,1.0,1.0,20,0.00,,,0.00,Wunderground v.1.15,2013-02-05 00:35:00,
2013-02-04 18:10:00,44.5,9.9,29.80,North,352,0.0,0.0,24,0.00,,,0.00,Wunderground v.1.15,2013-02-05 01:10:00,
2013-02-04 18:25:00,43.8,10.2,29.80,West,266,1.0,1.0,25,0.00,,,0.00,Wunderground v.1.15,2013-02-05 01:25:00,
2013-02-04 18:30:00,44.1,9.5,29.81,NW,311,1.0,1.0,24,0.00,,,0.00,Wunderground v.1.15,2013-02-05 01:30:00,
2013-02-04 18:40:00,43.5,10.8,29.81,West,281,1.0,2.0,26,0.00,,,0.00,Wunderground v.1.15,2013-02-05 01:40:00,
2013-02-04 18:55:00,44.5,11.7,29.81,West,278,1.0,1.0,26,0.00,,,0.00,Wunderground v.1.15,2013-02-05 01:55:00,
2013-02-04 19:20:00,40.9,11.8,29.81,WSW,257,1.0,1.0,30,0.00,,,0.00,Wunderground v.1.15,2013-02-05 02:20:00,
2013-02-04 19:45:00,41.0,11.9,29.80,West,276,0.0,1.0,30,0.00,,,0.00,Wunderground v.1.15,2013-02-05 02:45:00,
2013-02-04 19:55:00,41.5,12.3,29.81,West,269,1.0,1.0,30,0.00,,,0.00,Wunderground v.1.15,2013-02-05 02:55:00,
2013-02-04 20:10:00,40.1,12.6,29.80,WSW,250,0.0,1.0,32,0.00,,,0.00,Wunderground v.1.15,2013-02-05 03:10:00,
2013-02-04 20:20:00,38.5,11.8,29.81,WSW,245,1.0,1.0,33,0.00,,,0.00,Wunderground v.1.15,2013-02-05 03:20:00,
2013-02-04 20:35:00,36.8,12.3,29.81,SW,233,0.0,0.0,36,0.00,,,0.00,Wunderground v.1.15,2013-02-05 03:35:00,
2013-02-04 20:45:00,37.9,12.6,29.81,SW,233,0.0,0.0,35,0.00,,,0.00,Wunderground v.1.15,2013-02-05 03:45:00,
2013-02-04 20:55:00,36.7,12.2,29.82,WSW,245,0.0,0.0,36,0.00,,,0.00,Wunderground v.1.15,2013-02-05 03:55:00,
2013-02-04 21:10:00,36.5,12.7,29.81,NW,323,1.0,1.0,37,0.00,,,0.00,Wunderground v.1.15,2013-02-05 04:10:00,
2013-02-04 21:20:00,37.3,12.7,29.81,NNW,342,1.0,2.0,36,0.00,,,0.00,Wunderground v.1.15,2013-02-05 04:20:00,
2013-02-04 21:30:00,39.0,13.6,29.82,SW,225,1.0,2.0,35,0.00,,,0.00,Wunderground v.1.15,2013-02-05 04:30:00,
2013-02-04 21:35:00,39.1,13.1,29.83,NNW,333,1.0,1.0,34,0.00,,,0.00,Wunderground v.1.15,2013-02-05 04:35:00,
2013-02-04 21:40:00,38.9,12.9,29.83,West,279,1.0,1.0,34,0.00,,,0.00,Wunderground v.1.15,2013-02-05 04:40:00,
2013-02-04 21:45:00,38.6,13.3,29.83,West,280,1.0,1.0,35,0.00,,,0.00,Wunderground v.1.15,2013-02-05 04:45:00,
2013-02-04 21:50:00,39.4,13.3,29.83,NNW,343,1.0,1.0,34,0.00,,,0.00,Wunderground v.1.15,2013-02-05 04:50:00,
2013-02-04 21:55:00,41.0,14.1,29.83,West,269,1.0,1.0,33,0.00,,,0.00,Wunderground v.1.15,2013-02-05 04:55:00,
2013-02-04 22:00:00,41.7,13.2,29.83,West,276,1.0,2.0,31,0.00,,,0.00,Wunderground v.1.15,2013-02-05 05:00:00,
2013-02-04 22:05:00,41.8,13.3,29.83,West,269,1.0,2.0,31,0.00,,,0.00,Wunderground v.1.15,2013-02-05 05:05:00,
2013-02-04 22:10:00,42.3,13.8,29.83,West,269,1.0,1.0,31,0.00,,,0.00,Wunderground v.1.15,2013-02-05 05:10:00,
2013-02-04 22:15:00,42.3,13.0,29.83,South,183,1.0,1.0,30,0.00,,,0.00,Wunderground v.1.15,2013-02-05 05:15:00,
2013-02-04 22:20:00,41.1,12.7,29.83,WSW,240,1.0,3.0,31,0.00,,,0.00,Wunderground v.1.15,2013-02-05 05:20:00,
2013-02-04 22:25:00,40.9,13.3,29.84,ESE,120,2.0,3.0,32,0.00,,,0.00,Wunderground v.1.15,2013-02-05 05:25:00,
2013-02-04 22:35:00,40.2,13.3,29.84,WSW,253,1.0,2.0,33,0.00,,,0.00,Wunderground v.1.15,2013-02-05 05:35:00,
2013-02-04 22:40:00,40.9,13.3,29.84,North,9,2.0,2.0,32,0.00,,,0.00,Wunderground v.1.15,2013-02-05 05:40:00,
2013-02-04 22:45:00,41.9,13.4,29.83,WSW,256,2.0,2.0,31,0.00,,,0.00,Wunderground v.1.15,2013-02-05 05:45:00,
2013-02-04 22:50:00,42.4,13.9,29.84,West,260,2.0,2.0,31,0.00,,,0.00,Wunderground v.1.15,2013-02-05 05:50:00,
2013-02-04 22:55:00,41.8,13.3,29.84,WSW,239,1.0,2.0,31,0.00,,,0.00,Wunderground v.1.15,2013-02-05 05:55:00,
2013-02-04 23:00:00,40.9,12.5,29.84,NW,323,1.0,1.0,31,0.00,,,0.00,Wunderground v.1.15,2013-02-05 06:00:00,
2013-02-04 23:05:00,40.6,13.0,29.84,NNE,19,1.0,1.0,32,0.00,,,0.00,Wunderground v.1.15,2013-02-05 06:05:00,
2013-02-04 23:15:00,40.9,13.3,29.84,West,276,1.0,1.0,32,0.00,,,0.00,Wunderground v.1.15,2013-02-05 06:15:00,
2013-02-04 23:20:00,40.3,12.7,29.85,NW,320,1.0,1.0,32,0.00,,,0.00,Wunderground v.1.15,2013-02-05 06:20:00,
2013-02-04 23:25:00,39.1,13.1,29.85,WSW,253,0.0,1.0,34,0.00,,,0.00,Wunderground v.1.15,2013-02-05 06:25:00,
2013-02-04 23:30:00,37.2,12.7,29.85,WNW,283,0.0,1.0,36,0.00,,,0.00,Wunderground v.1.15,2013-02-05 06:30:00,
2013-02-04 23:35:00,37.1,13.2,29.84,NW,320,1.0,1.0,37,0.00,,,0.00,Wunderground v.1.15,2013-02-05 06:35:00,
2013-02-04 23:45:00,37.7,13.1,29.84,WSW,248,1.0,1.0,36,0.00,,,0.00,Wunderground v.1.15,2013-02-05 06:45:00,
2013-02-04 23:50:00,37.3,12.7,29.84,North,5,1.0,2.0,36,0.00,,,0.00,Wunderground v.1.15,2013-02-05 06:50:00,
2013-02-04 23:55:00,37.9,13.3,29.84,NNW,347,1.0,2.0,36,0.00,,,0.00,Wunderground v.1.15,2013-02-05 06:55:00,